Weather History for Biloxi, MS

Change the Weather History Date:

Friday, March 1, 2013

  Actual Average Record
Temperature  
Mean Temperature 50 °F -  
Max Temperature 59 °F 67 °F 77 °F (1951)
Min Temperature 41 °F 49 °F 28 °F (1968)
Degree Days  
Heating Degree Days 14    
Moisture  
Dew Point 33 °F    
Average Humidity 55    
Maximum Humidity 77    
Minimum Humidity 30    
Precipitation  
Precipitation 0.00 in - - ()
Sea Level Pressure  
Sea Level Pressure 30.10 in    
Wind  
Wind Speed 6 mph (NNW)    
Max Wind Speed 16 mph    
Max Gust Speed 24 mph    
Visibility 10 miles    
Events      
Averages and records for this station are not official NWS values.
T = Trace of Precipitation, MM = Missing Value Source: NWS Daily Summary

Daily Weather History Graph

Daily Weather History Graph

Search for Another Location

Airport:

Trip Planner

Search our weather history database for the weather conditions in past years. The results will help you decide how hot, cold, wet, or windy it might be!

Date:

Astronomy

Mar. 01, 2013 Rise Set
Actual Time 6:21 AM CST 5:54 PM CST
Civil Twilight 5:57 AM CST 6:18 PM CST
Nautical Twilight 5:29 AM CST 6:46 PM CST
Astronomical Twilight 5:01 AM CST 7:14 PM CST
Moon 10:04 PM CST (3/1) 8:28 AM CST (3/1)
Length of Visible Light 12h 21m
Length of Day
11h 33m
Waning Gibbous, 83% of the Moon is Illuminated
Mar 1
Waning Gibbous
Mar 4
Last Quarter
Mar 11
New
Mar 19
First Quarter
Mar 27
Full

Hourly Weather History & Observations

Time (CST) Temp. Windchill Dew Point Humidity Pressure Visibility Wind Dir Wind Speed Gust Speed Precip Events Conditions
12:58 AM 45.9 °F 43.6 °F 34.7 °F 65% 30.12 in 10.0 mi NW 4.6 mph - N/A   Scattered Clouds
1:58 AM 44.6 °F - 35.1 °F 69% 30.11 in 10.0 mi Calm Calm - N/A   Mostly Cloudy
2:58 AM 43.3 °F - 35.1 °F 73% 30.09 in 10.0 mi NW 2.3 mph - N/A   Mostly Cloudy
3:58 AM 42.8 °F 38.6 °F 36.0 °F 77% 30.11 in 10.0 mi NW 6.9 mph - N/A   Overcast
4:58 AM 42.4 °F 39.6 °F 35.8 °F 77% 30.12 in 10.0 mi NW 4.6 mph - N/A   Overcast
5:58 AM 42.6 °F 40.9 °F 35.1 °F 75% 30.13 in 10.0 mi North 3.5 mph - N/A   Overcast
6:58 AM 42.8 °F 40.1 °F 34.9 °F 74% 30.13 in 10.0 mi North 4.6 mph - N/A   Mostly Cloudy
7:58 AM 43.9 °F 42.3 °F 35.1 °F 71% 30.14 in 10.0 mi NNE 3.5 mph - N/A   Overcast
8:58 AM 46.0 °F 44.8 °F 34.2 °F 63% 30.14 in 10.0 mi NNE 3.5 mph - N/A   Scattered Clouds
9:58 AM 50.9 °F - 32.7 °F 50% 30.14 in 10.0 mi Variable 1.2 mph - N/A   Partly Cloudy
10:58 AM 51.4 °F - 34.2 °F 52% 30.13 in 10.0 mi SSW 6.9 mph - N/A   Clear
11:58 AM 54.3 °F - 36.3 °F 51% 30.10 in 10.0 mi SSW 9.2 mph - N/A   Clear
12:58 PM 55.4 °F - 37.2 °F 50% 30.07 in 10.0 mi SSW 10.4 mph - N/A   Partly Cloudy
1:58 PM 59.9 °F - 30.2 °F 33% 30.04 in 10.0 mi Variable 3.5 mph - N/A   Scattered Clouds
2:58 PM 58.6 °F - 29.5 °F 33% 30.03 in 10.0 mi NW 8.1 mph - N/A   Partly Cloudy
3:29 PM 59.0 °F - 28.4 °F 31% 30.01 in 10.0 mi WNW 12.7 mph - N/A   Clear
3:58 PM 59.9 °F - 28.4 °F 30% 30.02 in 10.0 mi NW 11.5 mph - N/A   Partly Cloudy
4:58 PM 58.1 °F - 31.1 °F 36% 30.03 in 10.0 mi NNW 11.5 mph - N/A   Clear
5:55 PM 55.4 °F - 30.2 °F 38% 30.04 in 10.0 mi NW 10.4 mph - N/A   Clear
6:58 PM 52.9 °F - 29.3 °F 40% 30.09 in 10.0 mi NNW 9.2 mph - N/A   Clear
7:58 PM 50.4 °F - 30.2 °F 46% 30.12 in 10.0 mi NNW 9.2 mph - N/A   Clear
8:58 PM 48.2 °F - 30.4 °F 50% 30.16 in 10.0 mi NNW 16.1 mph 24.2 mph N/A   Clear
9:58 PM 45.9 °F 40.8 °F 31.1 °F 56% 30.17 in 10.0 mi North 10.4 mph - N/A   Clear
10:58 PM 43.3 °F 37.7 °F 30.6 °F 61% 30.17 in 10.0 mi North 10.4 mph - N/A   Clear
11:58 PM 41.2 °F 36.0 °F 30.7 °F 66% 30.18 in 10.0 mi North 8.1 mph - N/A   Clear